Weather History for Camarillo, CA

Change the Weather History Date:

Sunday, September 14, 2014

  Actual Average Record
Temperature  
Mean Temperature 79 °F 67 °F  
Max Temperature 91 °F 77 °F 91 °F (2014)
Min Temperature 67 °F 57 °F 45 °F (1956)
Degree Days  
Heating Degree Days 0 0  
Month to date heating degree days 0 0  
Since 1 July heating degree days 0 15  
Cooling Degree Days 14 2  
Month to date cooling degree days 125 41  
Year to date cooling degree days 762 253  
Growing Degree Days 28 (Base 50)    
Moisture  
Dew Point 62 °F    
Average Humidity 60    
Maximum Humidity 78    
Minimum Humidity 41    
Precipitation  
Precipitation 0.00 in 0.01 in 0.02 in (1991)
Month to date precipitation T 0.05  
Year to date precipitation 4.22 11.09  
Since 1 July precipitation 0.03 0.11  
Sea Level Pressure  
Sea Level Pressure 29.76 in    
Wind  
Wind Speed 4 mph (WSW)    
Max Wind Speed 12 mph    
Max Gust Speed 14 mph    
Visibility 9 miles    
Events      
T = Trace of Precipitation, MM = Missing Value Source: NWS Daily Summary

Daily Weather History Graph

Daily Weather History Graph

Search for Another Location

Airport:

Trip Planner

Search our weather history database for the weather conditions in past years. The results will help you decide how hot, cold, wet, or windy it might be!

Date:

Astronomy

Sep. 14, 2014 Rise Set
Actual Time 6:38 AM PDT 7:04 PM PDT
Civil Twilight 6:13 AM PDT 7:29 PM PDT
Nautical Twilight 5:44 AM PDT 7:58 PM PDT
Astronomical Twilight 5:14 AM PDT 8:28 PM PDT
Moon 11:16 PM PDT (9/14) 12:34 PM PDT (9/14)
Length of Visible Light 13h 15m
Length of Day
12h 25m
Waning Gibbous, 63% of the Moon is Illuminated
Sep 14
Waning Gibbous
Sep 15
Last Quarter
Sep 23
New
Oct 1
First Quarter
Oct 8
Full

Hourly Weather History & Observations

Time (PDT) Temp. Heat Index Dew Point Humidity Pressure Visibility Wind Dir Wind Speed Gust Speed Precip Events Conditions
12:55 AM 70.0 °F - 62.1 °F 76% 29.75 in 9.0 mi Calm Calm - N/A   Clear
1:55 AM 69.1 °F - 61.0 °F 75% 29.75 in 9.0 mi Calm Calm - N/A   Clear
2:55 AM 69.1 °F - 60.1 °F 73% 29.75 in 9.0 mi Calm Calm - N/A   Clear
3:55 AM 70.0 °F - 61.0 °F 73% 29.74 in 9.0 mi Calm Calm - N/A   Clear
4:55 AM 69.1 °F - 61.0 °F 75% 29.75 in 10.0 mi Calm Calm - N/A   Clear
5:55 AM 68.0 °F - 60.1 °F 76% 29.75 in 8.0 mi Calm Calm - N/A   Clear
6:55 AM 69.1 °F - 60.1 °F 73% 29.77 in 9.0 mi Calm Calm - N/A   Clear
7:55 AM 71.1 °F - 62.1 °F 73% 29.79 in 8.0 mi WNW 3.5 mph - N/A   Clear
8:55 AM 75.9 °F - 62.1 °F 62% 29.79 in 9.0 mi Calm Calm - N/A   Clear
9:55 AM 82.0 °F 83.0 °F 62.1 °F 51% 29.79 in 10.0 mi West 4.6 mph - N/A   Clear
10:55 AM 86.0 °F 87.3 °F 64.0 °F 48% 29.78 in 10.0 mi West 8.1 mph - N/A   Clear
11:55 AM 87.1 °F 88.3 °F 64.0 °F 46% 29.78 in 10.0 mi WSW 5.8 mph - N/A   Clear
12:55 PM 89.1 °F 90.0 °F 63.0 °F 42% 29.77 in 10.0 mi West 8.1 mph - N/A   Clear
1:55 PM 89.1 °F 89.3 °F 62.1 °F 40% 29.75 in 10.0 mi West 8.1 mph - N/A   Clear
2:55 PM 88.0 °F 88.4 °F 62.1 °F 42% 29.74 in 10.0 mi WSW 9.2 mph - N/A   Clear
3:55 PM 84.0 °F 84.9 °F 63.0 °F 49% 29.73 in 10.0 mi WSW 10.4 mph - N/A   Clear
4:55 PM 82.9 °F 83.7 °F 62.1 °F 49% 29.73 in 10.0 mi WSW 9.2 mph - N/A   Clear
5:55 PM 80.1 °F 81.5 °F 63.0 °F 56% 29.73 in 9.0 mi SSW 6.9 mph - N/A   Clear
6:55 PM 77.0 °F - 63.0 °F 62% 29.73 in 9.0 mi WSW 6.9 mph - N/A   Clear
7:55 PM 73.9 °F - 63.0 °F 68% 29.75 in 9.0 mi West 3.5 mph - N/A   Clear
8:55 PM 73.0 °F - 63.0 °F 71% 29.76 in 9.0 mi WNW 3.5 mph - N/A   Clear
9:55 PM 72.0 °F - 63.0 °F 73% 29.77 in 9.0 mi West 4.6 mph - N/A   Clear
10:55 PM 72.0 °F - 63.0 °F 73% 29.77 in 9.0 mi Calm Calm - N/A   Clear
11:55 PM 71.1 °F - 63.0 °F 75% 29.77 in 9.0 mi WNW 4.6 mph - N/A   Clear